Location: Newark
(34.0131°N, 4.3314°W)
Time: 06:43:38
(UTC+00:00)

Courier 1B - Pass Details

Date: 26 October 2019
Orbit: 963 x 1209 km, 28.3° (Epoch: 12 November)

Event Time Altitude Azimuth Distance (km) Brightness Sun altitude
Rises 19:59:58 0° 271° (W) 4,096 11.9 -31.5°
Reaches altitude 10° 20:03:02 10° 263° (W) 3,140 11.0 -32.1°
Maximum altitude 20:10:08 38° 199° (SSW) 1,746 8.8 -33.6°
Enters shadow 20:10:41 38° 190° (S) 1,756 8.7 -33.7°
